[[{"header":{"parameterUnit":"m.s-1","parameterCategory":1,"la1":30.2991,"la2":30.254,"lo1":-89.0895,"lo2":-89.0444,"dy":0.0017,"dx":0.0017,"nx":28,"ny":28,"refTime":"2024-07-12T03:00:00:Z","depth":0,"parameterNumber":2,"parameterNumberName":"U-component_of_WINDS"},"data":[0,0,0,0,0,0,0,0,0,0,0,0,0,0,0,0,0,0,0,0,0,0,0,0,0,0,0,0,0,0,0,0,0,0,0,0,0,0,0,0,0,0,0,0,0,0,0,0,0,0,0,0,0,0,0,0,0,0,4.1873,4.1873,0,4.1882,4.1882,4.1882,4.1753,4.1749,4.1746,4.1742,4.1758,4.1762,4.1766,0,0,0,0,0,0,0,0,0,0,0,0,0,4.1748,4.1751,4.1873,4.1873,4.1873,4.1882,4.1882,4.1882,4.1753,4.1749,4.1745,4.1741,4.1757,4.1761,4.1766,0,0,0,0,0,0,0,0,0,0,0,0,0,4.1785,4.1752,4.1873,4.181,4.1804,4.1882,4.1882,4.1882,4.1754,4.1749,4.1744,4.1739,4.1756,4.1761,4.1766,4.1907,0,0,4.1783,4.1786,0,0,0,0,0,0,0,0,4.1783,4.1789,4.1819,4.1814,4.1808,4.181,4.1844,4.1891,4.1756,4.1773,4.1742,4.1736,4.178,4.1784,4.1797,4.1908,4.1908,4.1784,4.1787,4.179,4.1791,0,0,0,0,0,0,0,4.178,4.1788,4.1876,4.1819,4.1813,4.1782,4.1781,4.1852,4.1807,4.1771,4.1762,4.1765,4.1776,4.1792,4.1797,4.1909,4.1784,4.1789,4.1792,4.1794,4.2131,4.2137,0,0,0,0,0,0,4.1786,4.1787,4.1876,4.1877,4.1782,4.1789,4.1788,4.1815,4.1806,4.1799,4.1769,4.1758,4.1785,4.179,4.1797,4.1957,4.179,4.1795,4.1798,4.2126,4.2132,4.2139,0,0,0,0,0,0,4.1783,4.1795,4.1876,4.1829,4.1837,4.1796,4.1828,4.1818,4.1833,4.1804,4.1795,4.1793,4.1781,4.1789,4.1879,4.1956,4.1797,4.1803,4.2119,4.2128,4.2136,4.2282,0,0,0,0,0,0,4.178,4.1795,4.1847,4.1831,4.184,4.1958,4.1833,4.1822,4.1843,4.1829,4.1824,4.1818,4.1778,4.1872,4.1885,4.1961,4.1807,4.2112,4.2123,4.2133,4.227,4.2295,4.2316,0,0,0,0,0,4.1776,4.189,4.185,4.1862,4.1904,4.1962,4.1967,4.1917,4.185,4.1902,4.1882,4.1818,4.1946,4.1882,4.1896,4.1975,4.2107,4.212,4.2132,4.226,4.229,4.2315,0,0,0,0,0,0,4.192,4.1887,4.1842,4.1954,4.1962,4.194,4.2005,4.195,4.1979,4.1965,4.1902,4.1902,4.2003,4.1998,4.1927,4.2108,4.2015,4.2031,4.2108,4.2135,4.2158,4.2156,4.1812,0,0,0,0,0,4.1964,4.2012,4.1982,4.2083,4.2089,4.2047,4.207,4.203,4.2036,4.2039,4.2026,4.2036,4.2077,4.2106,4.2144,4.2269,4.2265,4.2331,4.2353,4.2372,4.2386,4.2449,4.2477,4.218,4.218,4.218,0,0,4.2056,4.2044,4.2079,4.2112,4.2112,4.2164,4.205,4.2111,4.2148,4.2049,4.2131,4.2123,4.2129,4.2237,4.2284,4.2236,4.2467,4.2388,4.2403,4.2407,4.2465,4.2493,4.2518,4.2188,4.2187,4.2186,0,0,4.225,4.2247,4.2329,4.2332,4.2333,4.2304,4.2324,4.231,4.2299,4.2381,4.2306,4.2351,4.2425,4.2431,4.2445,4.2638,4.258,4.2653,4.277,4.2832,4.2856,4.2876,4.2943,4.2968,4.2667,4.2668,4.2668,0,4.2366,4.2439,4.238,4.2444,4.2459,4.2368,4.2451,4.2457,4.2472,4.2485,4.2431,4.252,4.2518,4.2624,4.2671,4.2686,4.2706,4.2652,4.2857,4.2877,4.2895,4.2958,4.2983,4.2676,4.2675,4.2674,4.2674,0,4.2579,4.2631,4.2698,4.271,4.2734,4.2808,4.276,4.2791,4.2749,4.2725,4.2809,4.2803,4.2836,4.2858,4.282,4.2959,4.2929,4.2867,4.2771,4.2933,4.299,4.3014,4.2689,4.2685,4.2683,4.2681,0,0,4.2865,4.2841,4.2866,4.2869,4.2863,4.2902,4.2971,4.3,4.3027,4.3041,4.3096,4.3159,4.3101,4.3116,4.3076,4.3132,4.3281,4.3062,4.3061,4.3101,4.3432,4.3477,4.3506,4.3243,4.3247,4.3251,4.343,0,4.3052,4.3165,4.3112,4.3233,4.3278,4.3191,4.3251,4.3254,4.3234,4.3271,4.3249,4.3293,4.3215,4.3222,4.3273,4.3253,4.3347,4.3239,4.3294,4.3296,4.3292,4.3536,4.3584,4.3754,4.3453,4.3457,4.3459,0,4.3285,4.3302,4.3426,4.3407,4.3425,4.348,4.35,4.3537,4.3538,4.3519,4.3534,4.3481,4.3548,4.3454,4.3544,4.3472,4.3491,4.3484,4.349,4.3492,4.3387,4.3542,4.3807,4.3832,4.3495,4.3492,4.349,0,4.3477,4.3533,4.3613,4.3619,4.36,4.364,4.3634,4.363,4.365,4.3669,4.368,4.3709,4.3724,4.3747,4.3703,4.3639,4.3799,4.3701,4.3784,4.3786,4.3821,4.3819,4.4091,4.3838,4.3837,4.3837,4.3836,0,4.3689,4.3768,4.3698,4.3748,4.3832,4.3772,4.3858,4.3843,4.384,4.3885,4.3813,4.3857,4.3797,4.3836,4.3803,4.3881,4.3889,4.3876,4.3865,4.3881,4.3882,4.3891,4.3878,4.3844,4.3842,4.3841,4.384,0,4.3918,4.3875,4.3956,4.393,4.3925,4.3989,4.3967,4.4012,4.3986,4.4044,4.4054,4.4013,4.4055,4.4013,4.4053,4.403,4.4134,4.4109,4.4133,4.4125,4.4209,4.4201,4.4494,4.4529,4.4256,4.4259,4.4261,0,4.4056,4.4113,4.4092,4.4115,4.4113,4.4153,4.4171,4.4114,4.4136,4.414,4.4184,4.4219,4.4243,4.4313,4.4288,4.4318,4.4291,4.4391,4.4295,4.4307,4.4289,4.4285,4.4289,4.4411,4.4414,4.4417,4.4419,0,4.4303,4.4278,4.4306,4.4326,4.4349,4.4363,4.4372,4.4396,4.4336,4.4365,4.4404,4.4423,4.4461,4.4496,4.4517,4.4513,4.4456,4.4449,4.4469,4.4485,4.4496,4.4488,4.4184,4.4443,4.444,4.4439,4.4437,4.4436,4.4489,4.4534,4.4525,4.4558,4.4557,4.4566,4.4606,4.4582,4.4613,4.4638,4.4603,4.4651,4.4649,4.4671,4.4673,4.4711,4.4668,4.4699,4.4706,4.4714,4.4725,4.4491,4.4715,4.4714,4.4714,4.4713,4.4713,0,4.473,4.4719,4.475,4.4761,4.4787,4.4729,4.4734,4.476,4.4803,4.4804,4.4828,4.4873,4.4905,4.4882,4.4909,4.4944,4.4918,4.4953,4.4949,4.4948,4.4763,4.4741,4.4973,4.4973,4.4973,4.4973,4.4973,4.4972,4.4858,4.4931,4.4904,4.4976,4.4965,4.5009,4.5017,4.5025,4.5025,4.5076,4.5102,4.5085,4.5076,4.5102,4.5129,4.5121,4.5134,4.5178,4.5161,4.4987,4.4962,4.4937,4.4916,4.5181,4.5182,4.5342,4.5344,4.5345]},{"header":{"parameterUnit":"m.s-1","parameterCategory":1,"la1":30.2991,"la2":30.254,"lo1":-89.0895,"lo2":-89.0444,"dy":0.0017,"dx":0.0017,"nx":28,"ny":28,"refTime":"2024-07-12T03:00:00:Z","depth":0,"parameterNumber":3,"parameterNumberName":"V-component_of_WINDS"},"data":[0,0,0,0,0,0,0,0,0,0,0,0,0,0,0,0,0,0,0,0,0,0,0,0,0,0,0,0,0,0,0,0,0,0,0,0,0,0,0,0,0,0,0,0,0,0,0,0,0,0,0,0,0,0,0,0,0,0,3.8099,3.81,0,3.8246,3.8248,3.825,3.8263,3.8261,3.826,3.8258,3.8402,3.8407,3.8412,0,0,0,0,0,0,0,0,0,0,0,0,0,3.782,3.7825,3.8099,3.81,3.8102,3.8246,3.8248,3.825,3.8263,3.8261,3.8259,3.8258,3.84,3.8406,3.8413,0,0,0,0,0,0,0,0,0,0,0,0,0,3.7951,3.7827,3.8098,3.8126,3.813,3.8246,3.8248,3.8251,3.8264,3.8261,3.8259,3.8257,3.8398,3.8406,3.8414,3.8509,0,0,3.8438,3.8441,0,0,0,0,0,0,0,0,3.7944,3.7962,3.812,3.8125,3.8129,3.8234,3.8203,3.8337,3.8264,3.8213,3.8258,3.8256,3.8347,3.8359,3.8392,3.8515,3.8522,3.8438,3.8443,3.8447,3.8449,0,0,0,0,0,0,0,3.7935,3.7955,3.8157,3.8123,3.8128,3.8129,3.8145,3.8228,3.8291,3.8217,3.8218,3.8236,3.8349,3.8384,3.8395,3.8524,3.8438,3.8445,3.845,3.8453,3.873,3.8733,0,0,0,0,0,0,3.7922,3.7948,3.8152,3.8161,3.8029,3.8136,3.8154,3.8203,3.829,3.8302,3.8238,3.8236,3.8372,3.8386,3.84,3.8516,3.8447,3.8454,3.8458,3.8728,3.8731,3.8734,0,0,0,0,0,0,3.7916,3.794,3.8146,3.8055,3.8081,3.8143,3.8198,3.8207,3.8242,3.8306,3.8317,3.8263,3.8371,3.8389,3.8482,3.8522,3.8457,3.8465,3.8725,3.8729,3.8732,3.875,0,0,0,0,0,0,3.7907,3.7937,3.7976,3.8056,3.8086,3.8228,3.82,3.8211,3.8256,3.8255,3.8332,3.8342,3.837,3.847,3.849,3.8531,3.8471,3.8721,3.8727,3.8731,3.8746,3.8754,3.876,0,0,0,0,0,3.7898,3.7974,3.7978,3.8003,3.8136,3.823,3.8247,3.828,3.826,3.8297,3.8339,3.834,3.8514,3.8479,3.8502,3.8546,3.8719,3.8725,3.8731,3.8742,3.8752,3.876,0,0,0,0,0,0,3.7894,3.7985,3.799,3.8095,3.8155,3.8232,3.8281,3.8289,3.8354,3.835,3.8386,3.8403,3.8493,3.8529,3.8489,3.8642,3.8614,3.8625,3.8615,3.8625,3.8632,3.8621,3.8477,0,0,0,0,0,3.7906,3.7978,3.8051,3.8137,3.8167,3.8219,3.8261,3.8281,3.8343,3.8368,3.8416,3.8474,3.8542,3.8585,3.8651,3.8751,3.8767,3.8793,3.88,3.8806,3.8814,3.8867,3.8879,3.8753,3.8753,3.8753,0,0,3.7931,3.7989,3.8031,3.8137,3.8186,3.8256,3.824,3.8315,3.8366,3.8378,3.8469,3.8506,3.8573,3.8669,3.8714,3.8702,3.8852,3.8813,3.8817,3.8822,3.8874,3.8886,3.8897,3.8757,3.8757,3.8756,0,0,3.8011,3.8064,3.814,3.8189,3.8264,3.8298,3.8317,3.8393,3.8419,3.8511,3.8521,3.8581,3.8698,3.8745,3.8784,3.8882,3.8884,3.8902,3.894,3.8991,3.9001,3.901,3.9043,3.9055,3.891,3.891,3.891,0,3.8031,3.8141,3.8177,3.8253,3.8298,3.8315,3.839,3.8436,3.8527,3.8557,3.8543,3.8689,3.8735,3.8842,3.8866,3.8897,3.8917,3.8893,3.8998,3.9007,3.9015,3.9047,3.906,3.8912,3.8912,3.8912,3.8911,0,3.8161,3.8236,3.8288,3.8379,3.843,3.8505,3.855,3.8597,3.8613,3.8648,3.874,3.8796,3.8873,3.89,3.8916,3.9009,3.8999,3.8991,3.8963,3.9028,3.9059,3.9072,3.8914,3.8914,3.8913,3.8913,0,0,3.8242,3.8353,3.8371,3.8412,3.8496,3.8553,3.8628,3.8706,3.8745,3.8807,3.8869,3.8967,3.896,3.9004,3.9025,3.907,3.9142,3.9057,3.9059,3.9069,3.9246,3.925,3.9264,3.9145,3.9148,3.915,3.924,0,3.8331,3.8468,3.8503,3.8618,3.8686,3.8703,3.8767,3.8824,3.8859,3.8919,3.8956,3.9025,3.9012,3.9038,3.9084,3.9124,3.9178,3.9118,3.92,3.9202,3.9181,3.928,3.9286,3.9368,3.9252,3.9254,3.9256,0,3.8453,3.852,3.8643,3.8717,3.8747,3.8805,3.8879,3.8938,3.9001,3.9023,3.9073,3.9089,3.9164,3.9134,3.9237,3.9196,3.9231,3.9255,3.9259,3.9267,3.9232,3.9289,3.9395,3.9407,3.9275,3.9273,3.9272,0,3.8498,3.8619,3.8708,3.8743,3.8832,3.8872,3.891,3.8972,3.9017,3.908,3.9109,3.9179,3.9217,3.927,3.9303,3.9279,3.9403,3.9376,3.942,3.9419,3.9444,3.9442,3.9556,3.947,3.947,3.947,3.9469,0,3.8592,3.8666,3.873,3.8784,3.8866,3.8905,3.8984,3.9023,3.9078,3.9137,3.9156,3.9211,3.9253,3.9313,3.9339,3.9419,3.9436,3.9454,3.946,3.9452,3.9449,3.9474,3.9468,3.9473,3.9472,3.9472,3.9471,0,3.8656,3.8702,3.88,3.8877,3.8898,3.8955,3.902,3.9071,3.9107,3.9182,3.9202,3.9256,3.9328,3.9367,3.9456,3.9474,3.9563,3.9566,3.9542,3.9544,3.9586,3.9581,3.9719,3.9738,3.964,3.9641,3.9642,0,3.8713,3.877,3.8854,3.8897,3.8937,3.9006,3.9052,3.9091,3.9137,3.9214,3.9256,3.933,3.9391,3.9504,3.9549,3.9617,3.9621,3.9665,3.9631,3.9621,3.9619,3.9615,3.962,3.967,3.9671,3.9671,3.9672,0,3.8807,3.8827,3.8894,3.8969,3.9024,3.9084,3.9143,3.9177,3.9225,3.9276,3.9351,3.9399,3.9491,3.9562,3.9634,3.967,3.9678,3.9683,3.9696,3.9687,3.967,3.9678,3.9556,3.9679,3.9678,3.9678,3.9677,3.9677,3.8868,3.8919,3.8987,3.906,3.911,3.9165,3.9217,3.926,3.9324,3.9404,3.9423,3.9501,3.9562,3.9659,3.9698,3.9757,3.9749,3.9769,3.9773,3.9777,3.9778,3.9663,3.9771,3.977,3.977,3.977,3.977,0,3.8962,3.9006,3.9074,3.9158,3.9215,3.9221,3.9287,3.9333,3.9403,3.9461,3.9521,3.9606,3.9675,3.9727,3.9797,3.9835,3.984,3.9851,3.9848,3.9856,3.9783,3.9763,3.9846,3.9846,3.9846,3.9846,3.9846,3.9846,3.9017,3.9105,3.9132,3.9243,3.9286,3.9366,3.9403,3.9452,3.9498,3.9594,3.9653,3.9687,3.9741,3.9815,3.9878,3.9891,3.9915,3.9926,3.9939,3.9869,3.9861,3.9853,3.9835,3.9932,3.9932,4.0007,4.0008,4.0008]}]]